Simultaneous Nadir Overpasses (SNOs) Predictions

Prediction of SNOs between NOAA-19 and NPP Satellite Orbit:

Table of predicted SNOs for the next 14.0 days since TLE Epoch: 12/19/2020
Index Date (NOAA-19) Time (NOAA-19) Lat,Lon (NOAA-19) SZA (NOAA-19 ) Date (NPP) Time (NPP) Lat,Lon (NPP) SZA (NPP ) Distance(km) Time Diff (sec)
1 12/19/2020 02:39:48 -78.81, -69.43 76.55 12/19/2020 02:40:16 -78.80, -69.27 76.58 3.57 28
2 12/19/2020 03:30:47 78.82, 97.97 103.46 12/19/2020 03:31:02 78.82, 97.93 103.45 1.34 15
3 12/19/2020 04:21:48 -78.82, -94.81 76.54 12/19/2020 04:21:47 -78.84, -94.90 76.52 2.62 1
4 12/19/2020 05:12:47 78.84, 72.59 103.47 12/19/2020 05:12:32 78.82, 72.53 103.46 2.69 15
5 12/19/2020 06:03:48 -78.84,-120.20 76.54 12/19/2020 06:03:17 -78.84,-120.30 76.51 2.14 31
6 12/19/2020 06:54:48 78.82, 46.95 103.47 12/19/2020 06:54:02 78.82, 47.14 103.47 3.95 46
7 12/19/2020 07:45:48 -78.85,-145.58 76.53 12/19/2020 07:44:47 -78.84,-145.69 76.51 2.46 61
8 12/19/2020 08:36:48 78.84, 21.57 103.47 12/19/2020 08:35:33 78.86, 21.50 103.53 3.01 75



Historial Predications of SNOs between NOAA-19 and NPP
